Regional Weather Roundup
Issued by NWS

Home | Current Version | Previous Version | Graphics & Text | Print | Product List | Glossary On
Versions: 1 2 3 4 5 6 7 8 9 10 11 12 13 14 15 16 17 18 19 20 21 22 23 24 25 26 27 28 29 30 31 32 33 34 35 36 37 38 39 40 41 42 43 44 45 46 47 48 49 50
000
ASUS43 KLOT 181521
RWRIL

ILLINOIS REGIONAL WEATHER ROUNDUP
NATIONAL WEATHER SERVICE CHICAGO/ROMEOVILLE IL
1000 AM CDT SAT APR 18 2015

NOTE: "FAIR" INDICATES FEW OR NO CLOUDS BELOW 12,000 FEET WITH NO
SIGNIFICANT WEATHER AND/OR OBSTRUCTIONS TO VISIBILITY.

* THESE STATIONS ARE NOT UNDER NWS QUALITY CONTROL. THEY ALSO MAY NOT
  REPORT WEATHER SUCH AS PRECIPITATION OR FOG.

ILZ001-002-007-009-015-016-024-181600-
NORTHWEST ILLINOIS

CITY           SKY/WX    TMP DP  RH WIND       PRES   REMARKS
MOLINE         PTSUNNY   69  52  54 NE6       30.01S
STERLING*      MOSUNNY   73  50  43 E16       30.03S
SAVANNA*       SUNNY     74  43  33 E15       30.02F
$$

ILZ003-004-008-010-011-017-018-181600-
NORTH CENTRAL ILLINOIS

CITY           SKY/WX    TMP DP  RH WIND       PRES   REMARKS
ROCKFORD       PTSUNNY   66  42  41 E15       30.08R
FREEPORT*      MOSUNNY   66  46  48 E17       30.08R
ROCHELLE*      MOSUNNY   69  43  38 NE21      30.05S
DE KALB*       MOSUNNY   65  43  45 E20       30.07R
PERU*          CLOUDY    68  55  62 CALM      30.04S
$$

ILZ005-006-012>014-019>023-181600-
NORTHEAST ILLINOIS

CITY           SKY/WX    TMP DP  RH WIND       PRES   REMARKS
CHICAGO-OHARE  PTSUNNY   56  39  53 NE15G28   30.10R
CHICAGO-MIDWAY PTSUNNY   60  42  51 NE14      30.09R
AURORA         MOSUNNY   65  43  44 NE17      30.06R
LANSING*       SUNNY     61  43  50 NE13      30.08R
JOLIET*        MOSUNNY   69  49  49 NE12      30.04F
WAUKEGAN       SUNNY     51  36  56 N15G28    30.10R
DUPAGE AIRPORT MOSUNNY   61  41  47 NE16      30.07R
KANKAKEE*      PTSUNNY   69  55  61 CALM      30.05S
WHEELING       SUNNY     54  38  54 NE10      30.12R
MORRIS*        PTSUNNY   69  49  49 E12       30.02F
ROMEOVILLE*    MOSUNNY   66  43  43 NE17      30.05S
NORTHERLY ISL    N/A     48  38  68 MISG        N/A
$$

LMZ740>746-181600-
SOUTHERN LAKE MICHIGAN

STATION/POSITION SKY/WX   TEMP    WIND        PRES    VSBY  WAVE
                          AIR SEA DIR/SP/G                  HT/PER
                          (F)     (DEG/KT/KT) (MB)    (MI)  (FT/S)
HARRISON CRIB                     350/ 17/ 20   N/A
BURNHAM HARBOR             48      10/  8/ 18   N/A
CALUMET HARBOR             50     330/ 12/ 19   N/A
BURNS HARBOR               54      20/  8/ 16 1018.3R
MICHIGAN CITY              48      20/  8/  9   N/A
MICHIGAN CITY 6N           47 47                N/A           1
$$

ILZ025>027-034>036-040-047-049-050-058-095>099-181600-
WEST-CENTRAL ILLINOIS

CITY           SKY/WX    TMP DP  RH WIND       PRES   REMARKS
QUINCY         CLOUDY    71  59  65 S10       29.99S
GALESBURG*     CLOUDY    71  57  62 CALM      30.00F
MACOMB*        CLOUDY    70  57  62 S7        30.02S
JACKSONVILLE*  CLOUDY    70  61  71 SE5       30.01R
PITTSFIELD*    CLOUDY    69  59  70 SE6       30.01S
$$

ILZ028>032-037-038-041>044-048-051>054-059>061-181600-
CENTRAL ILLINOIS

CITY           SKY/WX    TMP DP  RH WIND       PRES   REMARKS
PONTIAC        PTSUNNY   72  57  59 CALM      30.03F
BLOOMINGTON    PTSUNNY   71  57  61 S5        30.04F
DECATUR        CLOUDY    70  52  52 SE6       30.03S
PEORIA         PTSUNNY   71  57  61 S3        30.01F
LACON*         PTSUNNY   69  56  62 CALM      30.01F
LINCOLN*       CLOUDY    71  56  58 SE6       30.00F
SPRINGFIELD    CLOUDY    70  57  63 SE7       30.01F
TAYLORVILLE    CLOUDY    70  55  60 SE7       30.02R
$$

ILZ033-039-045-046-055>057-062-063-181600-
EAST-CENTRAL ILLINOIS

CITY           SKY/WX    TMP DP  RH WIND       PRES   REMARKS
CHAMPAIGN      CLOUDY    71  48  43 SE7       30.04S
DANVILLE*      PTSUNNY   69  52  54 S3        30.02S
RANTOUL*       PTSUNNY   72  50  46 S5        30.04F
MATTOON        CLOUDY    69  52  54 SE8       30.02F
PARIS*         CLOUDY    67  51  55 SE5       30.05S
$$

ILZ079-100>102-181600-
SOUTHWEST ILLINOIS

CITY           SKY/WX    TMP DP  RH WIND       PRES   REMARKS
BELLEVILLE     PTSUNNY   70  65  84 SE6       29.98F
CAHOKIA*       PTSUNNY   71  62  73 SE8       29.99S
SPARTA*        CLOUDY    69  62  78 E3        30.01R
$$

ILZ064>066-069>071-074>076-080>082-084>086-088>090-092>094-181600-
SOUTH-CENTRAL ILLINOIS

CITY           SKY/WX    TMP DP  RH WIND       PRES   REMARKS
CARBONDALE     CLOUDY    68  61  78 NE5       30.00R
CAIRO*         PTSUNNY   71  64  78 E7        30.00S
EFFINGHAM*     PTSUNNY   71  49  46 E5        30.04R
MARION         MOSUNNY   72  64  78 E6        30.01S
MT. VERNON     MOSUNNY   72  59  64 E7        30.02R
CENTRALIA*     PTSUNNY   76  58  52 SE8       30.00S
SALEM*         MOSUNNY   73  60  62 E6        30.01S
METROPOLIS*    PTSUNNY   72  64  76 E3        29.99S
$$

ILZ067-068-072-073-078-083-087-091-181600-
SOUTHEAST ILLINOIS

CITY           SKY/WX    TMP DP  RH WIND       PRES   REMARKS
LAWRENCEVILLE  CLOUDY    68  56  65 E6        30.03S
FLORA*         CLOUDY    68  58  71 CALM      30.02S
FAIRFIELD*     MOSUNNY   70  59  66 CALM      30.01R
HARRISBURG*    PTSUNNY   69  63  80 CALM      30.02R
ROBINSON*      CLOUDY    67  54  62 E3        30.03S
CARMI*         MOSUNNY   72  55  54 E6        30.01S
$$

ABBREVIATIONS USED IN REMARKS
   TC - TEMPERATURE IN CELSIUS
  WCI - WIND CHILL INDEX
   HX - HEAT INDEX
  VSB - VISIBILITY
$$




USA.gov is the U.S. government's official web portal to all federal, state and local government web resources and services.